Location: Madrid
(40.4167°N, 3.7036°W)
Time: 14:05:27
(UTC+00:00)

ISS - Pass Details

Date: 15 July 2024
Orbit: 410 x 424 km, 51.6° (Epoch: 14 July)

Event Time Altitude Azimuth Distance (km) Brightness Sun altitude
Rises 21:47:28 0° 298° (WNW) 2,340 1.2 -18.7°
Reaches altitude 10° 21:50:37 10° 331° (NNW) 1,479 0.2 -19.0°
Maximum altitude 21:52:01 12° 356° (N) 1,356 -0.4 -19.2°
Drops below altitude 10° 21:53:26 10° 22° (NNE) 1,480 -0.6 -19.4°
Sets 21:56:36 0° 54° (NE) 2,344 0.0 -19.7°
